ATLAS 5 CENTAUR DEB, 44661

Orbit data source: Space-Track

ATLAS 5 CENTAUR DEB, 44661 is space debris in HEO originally from a launch on Wed, 17 Oct 2018 UTC launched from the Air Force Eastern Test Range (AFETR). Debris objects in space refer to the collection of defunct objects orbiting the Earth. Examples of debris include non-operational satellites, rocket bodies, and fragments generated from explosions, collisions, or faulty payload assembly.

Loading next visibility...
Identifier
44661, 2018-079X
Orbit
HEO
Country
Flag of USUS
Related business
Flag of USUnited Launch Alliance/Lockheed Martin (US)
Manufacturer
ULA Decatur
Mission
Spacecraft
Bus & Motor
Unknown
Mass
Unknown
Launch date (UTC)
2018-10-17 (7 years ago)
Launch vehicle
Unknown
Launch site
Air Force Eastern Test Range (AFETR)
Object type
Payload
Rocket body
Debris
Shape & HBR
Unknown shape, 1.1 m
Radar Cross Section
RCS unknown

Expand to show TLE details & history
Last TLE update: 2 days ago

TLE from 2 days ago
0 ATLAS 5 CENTAUR DEB
1 44661U 18079X   25295.95581095 -.00000062  00000-0  00000+0 0  9999
2 44661  12.6479  79.1966 4645518 224.1756  87.7184  1.72654207 44502
Epoch: 2025-10-22T22:56Z
TLE epoch observation values (Epoch: 2025-10-22T22:56:22.066Z)
Latitude
-0.00004°
Longitude
63.41005°
Altitude
28,118.478 km
Speed
3.087 km/s
True Right ascension
05h 16m 29s
True Declination
0° 00' 00"
Sunlit
Object was in daylight at epoch
Visualization orbit readout
Latitude
Unknown
Longitude
Unknown
Altitude
Unknown
Speed
Unknown
Apparent Right ascension
Unknown
Apparent Declination
Unknown
Sunlit
N/A
Visualization observer readout
Local Sidereal Time
08:03:43
Azimuth
Unknown
Elevation
Unknown
Doppler factor
Unknown
Orbital elements
Apogee altitude
36,610.309 km
Perigee altitude
9,338.675 km
Semi-major axis
29,352.629 km
Eccentricity
0.46455
Inclination
12.6479°
RAAN
79.1966°
Arg. of periapsis
224.1756°
True anomaly
135.87902°
Mean anomaly
87.7184°
Eccentric anomaly
112.33789°
Mean motion
0.43159 °/min
Orbital period
834.12 mins
BSTAR
0
Loading maneuver chart data...
Computing Atmospheric mass density...

Documentation

Showing up to 5 results
|